www.pogodaiklimat.ru

Погода и климат >> Архив погоды >> Россия >> Томская область >> Старица


ПОГОДА в Старице

  • Прогноз погоды в Старице
  • Монитор погоды в Старице

АРХИВ ПОГОДЫ в Старице

Время (UTC), дата Ветер
(напр.,м/с)
 
Видим.   Явления Облачность Т
(С)
Тd
(С)
f
(%)
Тe
(С)
Тes
(С)
Комфортность P
(гПа)
Po
(гПа)
Тmin
(С)
Tmax
(С)
R
(мм)
R24
(мм)
S
(см)
00 17.01 Ю 1 4000 м слаб. снег 10/0
[As op]
-13.5 -15.3 86 -16 -16 1024.5 1013.7 -16.6 0.0 53
03 17.01 Ю 1 20 км {снег} 10/0
[As op]
-12.4 -14.1 87 -15 -15 1026.2 1015.5
06 17.01 Ю 1 20 км {снег} 10/0
[As op]
-11.0 -12.7 87 -13 -13 1027.9 1017.2
09 17.01 Ю 1 20 км 10/0
[As op]
-9.7 -11.6 86 -12 -12 1028.4 1017.7
12 17.01 штиль 0 20 км 10/0
[Ac trans Ci fib]
-11.2 -12.6 89 -11 -11 1029.3 1018.5 -9.5 0.4
15 17.01 Ю 2 20 км 10/0
[Ac und]
-8.7 -11.0 83 -13 -13 1029.2 1018.6
18 17.01 Ю 1 20 км 4/0
[Ci sp]
-11.5 -12.9 89 -14 -14 1029.2 1018.5
21 17.01 Ю 2 20 км 10/0
[Ac und]
-11.9 -14.1 84 -16 -16 1028.9 1018.2
00 18.01 ЮВ 1 20 км ясно -14.2 -16.3 84 -17 -17 1027.5 1016.7 -14.2 53
03 18.01 ЮВ 2 20 км 10/0
[Ac lent Cs]
-15.6 -17.8 83 -21 -21 1026.0 1015.1 -15.7
06 18.01 Ю 2 20 км 10/0
[As trans]
-13.0 -15.5 81 -18 -17 1023.3 1012.6
09 18.01 ЮВ 2 20 км 10/0
[As op]
-11.0 -13.7 80 -16 -15 1021.1 1010.5
12 18.01 Ю 2 20 км 10/0
[As op]
-9.4 -11.7 83 -14 -14 1019.9 1009.4 -9.4
15 18.01 Ю 1 20 км 10/10 500 м
[Sc]
-8.6 -10.8 84 -11 -11 1018.5 1008.0
18 18.01 Ю 2 20 км 10/10 480 м
[Sc]
-8.1 -10.4 83 -13 -13 1017.4 1006.9
21 18.01 Ю 2 20 км 10/10 330 м
[St]
-7.9 -9.4 89 -12 -12 1015.7 1005.2
00 19.01 Ю 3 20 км 10/10 330 м
[St]
-7.9 -9.8 86 -14 -14 1014.6 1004.2 -9.4 53
03 19.01 Ю 3 20 км 10/10 570 м
[Sc]
-8.1 -10.1 85 -14 -14 1013.6 1003.1
09 19.01 Ю 3 20 км 8/8 600 м
[Sc]
-6.2 -8.8 82 1014.4
12 19.01 Ю 3 20 км 10/10 570 м
[Sc]
-6.1 -8.4 84 -12 -12 1016.5 1006.1 -6.0
15 19.01 В 2 20 км 10/0
[As op]
-6.6 -8.9 84 -11 -11 1017.0 1006.5
18 19.01 20 км 10/0
[As op]
-7.2 -8.9 88 1016.8 1006.4
21 19.01 Ю 2 н/о н/о -8.1 -9.9 87 -13 -13 1015.7 1005.2
00 20.01 Ю 3 20 км 10/0
[As op]
-8.0 -9.3 90 -14 -14 1014.0 1003.6 -8.5 53
06 20.01 Ю 1 20 км 10/0
[Ci fib]
-11.8 -14.4 81 -14 -13 1014.5 1004.0
12 20.01 штиль 0 20 км 10/0
[Ac cast Cs]
-13.0 -15.1 84 -13 -13 1016.5 1005.8 -7.8
18 20.01 Ю 1 20 км 10/0
[Cs]
-15.4 -17.3 85 -18 -18 1017.0 1006.2
21 23.01 штиль 0 20 км 9 баллов -11.6 -13.5 86 -12 -12 1025.4 1014.7

 

Местоположение метеостанции Старица (Томская область, Россия): широта 58.15 долгота 80.58 высота над уровнем моря 80 м.

В архиве по умолчанию представлена погода в Старице за последнюю неделю. Архивные данные за месяц целиком и за предыдущие месяцы, начиная с января 2011 года, Вы можете получить, выбрав интересующий диапазон дат из раскрывающегося списка и нажав кнопку "Ввод!".


*Определитесь, кто Вы:
робот инопланетянин человек

Внимание! Время в таблицах - всемирное. Для получения местного времени необходимо прибавить поправку, которая равна 7 ч.

Смотрите также архив погоды в соседних городах и на ближайших метеорологических станциях:

Погода в Парабели (Томская область, Россия) (81 км)
Погода в Пудино (Томская область, Россия) (94 км)
Погода в Каргасоке (Томская область, Россия) (104 км)
Погода в Подгорном (Томская область, Россия) (130 км)
Погода в Колпашево (Томская область, Россия) (140 км)
Погода в Бакчаре (Томская область, Россия) (156 км)
Погода в Прохоркино (Томская область, Россия) (165 км)
Погода в Березовке (Томская область, Россия) (176 км)
Погода в Среднем Васюгане (Томская область, Россия) (181 км)
Погода в Молчаново (Томская область, Россия) (199 км)

Пояснения к столбцам:

Ветер - указаны скорость ветра в м/с - средняя за 10 мин, порывы в срок и между сроками (в фигурных скобках) и направление, откуда дует ветер: С - северный, СВ - северо-восточный, В - восточный, ЮВ - юго-восточный, Ю - южный, ЮЗ - юго-западный, З - западный, СЗ - северо-западный.
Видимость - горизонтальная дальность видимости в метрах или километрах. При видимости от 1 до 10 км при отсутствии осадков обычно наблюдается дымка, при ухудшении видимости до 1 км и менее - туман. В сухую погоду видимость может ухудшаться дымом, пылью или мглою.
Явления - указаны атмосферные явления, наблюдавшиеся в срок или в последний час перед сроком; фигурными скобками обозначены явления, наблюдавшиеся между сроками (за 1-3 часа до срока); квадратными скобками обозначены град или гололедные отложения с указанием их диаметра в мм.
Облачность - указаны через наклонную черту общая и нижняя облачность в баллах и высота нижней границы облаков в метрах; квадратными скобками обозначены формы облаков: Ci - перистые, Cs - перисто-слоистые, Cc - перисто-кучевые, Ac - высококучевые, As - высокослоистые, Sc - слоисто-кучевые, Ns - слоисто-дождевые, Cu - кучевые, Cb - кучево-дождевые. Подробнее классификацию облаков см. в Атласе облаков (PDF).
T - Температура воздуха - температура, измеренная на высоте 2 м над землей.
Td - Температура точки росы - температура, при понижении до которой содержащийся в воздухе водяной пар достигнет насыщения.
f - Относительная влажность воздуха - влажноcть воздуха, измеренная на высоте 2 м над землей.
Te - Эффективная температура - температура, которую ощущает одетый по сезону человек в тени. Характеристика душности погоды. При расчете учитывается влияние влажности воздуха и скорости ветра на теплоощущения человека.
Tes - Эффективная температура на солнце - температура, которую ощущает человек, с поправкой на солнечный нагрев. Характеристика знойности погоды. Зависит от высоты солнца над горизонтом, облачности и скорости ветра. Ночью, в пасмурную погоду, а также при ветре 12 м/с и более поправка равна нулю.
P - Атмосферное давление - приведенное к уровню моря атмосферное давление.
Po - Атмосферное давление - измеренное на уровне метеостанции атмосферное давление.
Tmin - Минимальная температура - минимум температуры воздуха на высоте 2 м над землей.
Tmax - Максимальная температура - максимум температуры воздуха на высоте 2 м над землей.
R - Количество осадков - Количество выпавших осадков за период времени, мм. При наведении курсора мыши на число - период времени, за который выпало указанное количество осадков.
R24 - Количество осадков - Количество выпавших осадков за 24 часа, мм.
S - Снежный покров - Высота снежного покрова, см. При наведении курсора мыши на число - состояние снежного покрова и степень покрытия местности в баллах.